Weather History for Hutchinson, MN

Change the Weather History Date:

Thursday, December 26, 2013

  Actual Average Record
Temperature  
Mean Temperature 17 °F -  
Max Temperature 27 °F 22 °F 84 °F (2003)
Min Temperature 7 °F 3 °F -31 °F (1996)
Degree Days  
Heating Degree Days 48    
Moisture  
Dew Point 16 °F    
Average Humidity 90    
Maximum Humidity 95    
Minimum Humidity 85    
Precipitation  
Precipitation 0.00 in - - ()
Sea Level Pressure  
Sea Level Pressure 30.08 in    
Wind  
Wind Speed 2 mph (ESE)    
Max Wind Speed 6 mph    
Max Gust Speed -    
Visibility 8 miles    
Events Fog , Snow    
Averages and records for this station are not official NWS values.
T = Trace of Precipitation, MM = Missing Value Source: NWS Daily Summary

Daily Weather History Graph

Daily Weather History Graph

Search for Another Location

Airport:

Trip Planner

Search our weather history database for the weather conditions in past years. The results will help you decide how hot, cold, wet, or windy it might be!

Date:

Astronomy

Dec. 26, 2013 Rise Set
Actual Time 7:54 AM CST 4:42 PM CST
Civil Twilight 7:20 AM CST 5:16 PM CST
Nautical Twilight 6:43 AM CST 5:53 PM CST
Astronomical Twilight 6:07 AM CST 6:28 PM CST
Moon 1:12 AM CST 12:28 PM CST
Length of Visible Light 9h 55m
Length of Day
8h 48m
Last Quarter, 38% of the Moon is Illuminated
Dec 26
Last Quarter
Jan 1
New
Jan 7
First Quarter
Jan 15
Full
Jan 23
Last Quarter

Hourly Weather History & Observations

Time (CST) Temp. Windchill Dew Point Humidity Pressure Visibility Wind Dir Wind Speed Gust Speed Precip Events Conditions
12:13 AM 16.7 °F - 13.6 °F 88% 30.08 in 10.0 mi Calm Calm - N/A   Overcast
12:33 AM 17.2 °F 11.9 °F 14.0 °F 87% 30.08 in 10.0 mi SSE 3.5 mph - N/A   Overcast
12:53 AM 17.6 °F - 14.0 °F 86% 30.07 in 10.0 mi Calm Calm - N/A   Overcast
1:14 AM 17.8 °F - 14.5 °F 87% 30.07 in 10.0 mi Calm Calm - N/A   Overcast
1:33 AM 18.3 °F - 14.5 °F 85% 30.07 in 10.0 mi Calm Calm - N/A   Overcast
1:53 AM 18.5 °F 13.3 °F 14.9 °F 86% 30.07 in 10.0 mi East 3.5 mph - N/A   Overcast
2:13 AM 18.3 °F - 14.9 °F 86% 30.07 in 10.0 mi Calm Calm - N/A   Overcast
2:33 AM 18.1 °F 11.3 °F 14.9 °F 87% 30.07 in 10.0 mi ESE 4.6 mph - N/A   Overcast
2:53 AM 16.7 °F - 13.6 °F 88% 30.07 in 10.0 mi Calm Calm - N/A   Scattered Clouds
3:13 AM 14.5 °F 8.8 °F 11.8 °F 89% 30.06 in 10.0 mi SE 3.5 mph - N/A   Clear
3:34 AM 14.0 °F 8.2 °F 11.8 °F 91% 30.06 in 10.0 mi ESE 3.5 mph - N/A   Clear
3:53 AM 12.2 °F 6.1 °F 10.6 °F 93% 30.06 in 10.0 mi ESE 3.5 mph - N/A   Clear
4:14 AM 12.0 °F 5.9 °F 10.2 °F 92% 30.06 in 10.0 mi SE 3.5 mph - N/A   Mostly Cloudy
4:33 AM 13.5 °F 7.5 °F 11.7 °F 93% 30.05 in 10.0 mi ESE 3.5 mph - N/A   Mostly Cloudy
4:53 AM 11.5 °F 5.3 °F 9.1 °F 90% 30.05 in 10.0 mi ESE 3.5 mph - N/A   Scattered Clouds
5:13 AM 12.4 °F 3.1 °F 10.8 °F 93% 30.04 in 10.0 mi ESE 5.8 mph - N/A   Clear
5:33 AM 12.2 °F - 10.4 °F 92% 30.04 in 10.0 mi Calm Calm - N/A   Clear
5:53 AM 7.5 °F - 5.5 °F 92% 30.04 in 10.0 mi Calm Calm - N/A   Clear
6:13 AM 10.6 °F 4.3 °F 8.8 °F 92% 30.03 in 10.0 mi East 3.5 mph - N/A   Clear
6:33 AM 8.2 °F 1.6 °F 6.1 °F 91% 30.04 in 10.0 mi SE 3.5 mph - N/A   Mostly Cloudy
6:53 AM 9.9 °F - 7.9 °F 92% 30.04 in 10.0 mi Calm Calm - N/A   Overcast
7:13 AM 10.0 °F - 7.9 °F 91% 30.05 in 10.0 mi Calm Calm - N/A   Overcast
7:33 AM 12.2 °F - 10.0 °F 91% 30.05 in 10.0 mi Calm Calm - N/A   Overcast
7:54 AM 13.3 °F - 11.3 °F 92% 30.06 in 10.0 mi Calm Calm - N/A   Overcast
8:13 AM 14.0 °F - 12.2 °F 93% 30.06 in 10.0 mi Calm Calm - N/A   Overcast
8:33 AM 14.7 °F - 12.9 °F 93% 30.06 in 10.0 mi Calm Calm - N/A   Overcast
8:53 AM 14.9 °F - 13.1 °F 93% 30.07 in 10.0 mi Calm Calm - N/A   Mostly Cloudy
9:13 AM 16.9 °F - 15.1 °F 93% 30.07 in 10.0 mi Calm Calm - N/A   Mostly Cloudy
9:33 AM 18.1 °F - 16.2 °F 92% 30.07 in 5.0 mi Calm Calm - N/A Snow Light Snow
9:54 AM 18.5 °F - 16.7 °F 93% 30.07 in 2.5 mi Calm Calm - N/A Snow Light Snow
10:13 AM 19.4 °F 14.3 °F 17.6 °F 93% 30.07 in 3.0 mi East 3.5 mph - N/A Snow Light Snow
10:33 AM 20.1 °F - 18.1 °F 92% 30.08 in 10.0 mi Calm Calm - N/A   Overcast
10:53 AM 21.0 °F - 18.7 °F 91% 30.08 in 7.0 mi Calm Calm - N/A   Overcast
11:13 AM 22.1 °F - 19.4 °F 89% 30.07 in 10.0 mi Calm Calm - N/A   Overcast
11:33 AM 22.6 °F - 19.9 °F 89% 30.07 in 5.0 mi Calm Calm - N/A Snow Light Snow
11:53 AM 23.4 °F - 20.3 °F 88% 30.06 in 10.0 mi Calm Calm - N/A   Overcast
12:14 PM 23.9 °F - 20.8 °F 88% 30.06 in 5.0 mi Calm Calm - N/A Snow Light Snow
12:33 PM 24.8 °F - 21.4 °F 87% 30.05 in 10.0 mi Calm Calm - N/A   Overcast
12:53 PM 25.5 °F 21.3 °F 22.5 °F 88% 30.04 in 10.0 mi ESE 3.5 mph - N/A   Overcast
1:13 PM 26.1 °F 20.5 °F 22.8 °F 88% 30.04 in 10.0 mi ESE 4.6 mph - N/A   Overcast
1:34 PM 26.6 °F 21.2 °F 23.5 °F 88% 30.04 in 10.0 mi ESE 4.6 mph - N/A   Overcast
1:53 PM 27.1 °F 21.8 °F 23.7 °F 87% 30.04 in 10.0 mi ESE 4.6 mph - N/A   Overcast
2:13 PM 27.5 °F 22.2 °F 23.9 °F 86% 30.04 in 10.0 mi ESE 4.6 mph - N/A   Overcast
2:33 PM 27.5 °F 22.2 °F 24.3 °F 88% 30.04 in 10.0 mi ESE 4.6 mph - N/A   Overcast
2:52 PM 27.3 °F 20.9 °F 24.1 °F 88% 30.04 in 10.0 mi SE 5.8 mph - N/A   Overcast
3:13 PM 27.5 °F 22.2 °F 24.3 °F 88% 30.05 in 10.0 mi SE 4.6 mph - N/A   Overcast
3:32 PM 27.3 °F 22.0 °F 24.4 °F 89% 30.05 in 10.0 mi ESE 4.6 mph - N/A   Overcast
3:53 PM 27.3 °F 22.0 °F 24.6 °F 90% 30.05 in 10.0 mi SE 4.6 mph - N/A   Overcast
4:13 PM 27.3 °F 23.4 °F 24.6 °F 90% 30.07 in 10.0 mi SE 3.5 mph - N/A   Overcast
4:33 PM 27.3 °F 23.4 °F 24.8 °F 90% 30.08 in 10.0 mi ESE 3.5 mph - N/A   Overcast
4:53 PM 27.1 °F - 24.8 °F 91% 30.08 in 10.0 mi Calm Calm - N/A   Overcast
5:13 PM 27.3 °F - 24.4 °F 89% 30.10 in 10.0 mi Calm Calm - N/A   Overcast
5:33 PM 27.1 °F - 24.6 °F 90% 30.11 in 10.0 mi Calm Calm - N/A   Overcast
5:53 PM 26.8 °F 22.8 °F 24.1 °F 90% 30.11 in 10.0 mi NE 3.5 mph - N/A   Overcast
6:13 PM 26.6 °F 22.6 °F 23.9 °F 90% 30.12 in 10.0 mi East 3.5 mph - N/A   Overcast
6:33 PM 26.6 °F - 23.7 °F 89% 30.13 in 10.0 mi Calm Calm - N/A   Overcast
6:53 PM 26.2 °F 22.1 °F 23.5 °F 90% 30.12 in 10.0 mi East 3.5 mph - N/A   Overcast
7:13 PM 25.5 °F - 23.0 °F 90% 30.13 in 10.0 mi Calm Calm - N/A   Overcast
7:33 PM 23.7 °F - 21.4 °F 91% 30.14 in 10.0 mi Calm Calm - N/A   Scattered Clouds
7:53 PM 20.5 °F - 19.0 °F 94% 30.14 in 7.0 mi Calm Calm - N/A   Clear
8:13 PM 21.0 °F - 19.8 °F 95% 30.14 in 5.0 mi Calm Calm - N/A   Clear
8:33 PM 17.1 °F - 15.8 °F 95% 30.14 in 0.8 mi Calm Calm - N/A   Mist
8:54 PM 14.5 °F - 13.3 °F 95% 30.14 in 0.2 mi Calm Calm - N/A Fog Light Freezing Fog
9:13 PM 13.1 °F - 11.3 °F 93% 30.14 in 0.2 mi Calm Calm - N/A Fog Light Freezing Fog
9:33 PM 12.7 °F - 11.1 °F 93% 30.14 in 0.2 mi Calm Calm - N/A Fog Light Freezing Fog
9:53 PM 10.2 °F - 8.1 °F 91% 30.14 in 0.2 mi Calm Calm - N/A Fog Light Freezing Fog
10:13 PM 8.6 °F - 5.9 °F 89% 30.15 in 0.2 mi Calm Calm - N/A Fog Light Freezing Fog
10:33 PM 8.4 °F - 5.9 °F 89% 30.15 in 0.2 mi Calm Calm - N/A Fog Light Freezing Fog
10:53 PM 8.6 °F - 6.1 °F 89% 30.15 in 0.2 mi Calm Calm - N/A Fog Light Freezing Fog
11:13 PM 8.4 °F - 6.1 °F 90% 30.15 in 0.2 mi Calm Calm - N/A Fog Light Freezing Fog
11:33 PM 11.3 °F - 9.1 °F 91% 30.15 in 0.8 mi Calm Calm - N/A   Overcast
11:53 PM 14.0 °F - 12.2 °F 93% 30.14 in 4.0 mi Calm Calm - N/A   Overcast